Starlink 11702

operational
NORAD ID: 63752 Int'l Des: 2025-089 Owner: SPXS Country: US Constellation: starlink
LEOCIRCULAR

Über Starlink 11702

Beschreibung wird geladen...

Live-Position

3D-Globus wird geladen...

Nächste Überflüge

Höhenverlauf

Altitude vs Time

uPlot chart will show altitude changes over time

Zweizeiliger Elementsatz

1 63752U 25089B 26037.26374671 .00454056 00000-0 33253-2 0 9993
2 63752 42.9992 121.6145 0002325 261.9647 98.0957 15.71034115 45192
Epoch: 6. Feb. 2026 • Age: 6 hours

Aktueller Status

Höhe 355.0 km
Geschwindigkeit 7.70 km/s
Subsatellitenpunkt 12.75°N, 169.68°E
Startdatum 29. Apr. 2025
Alter 0.7 years
Typ internet

Technische Details

Klassifizierung Payload
Masse 960.00 kg
Trockenmasse 910.00 kg
Gesamtmasse 960.00 kg
Länge 0.30 m
Durchmesser 4.10 m
Spannweite 29.00 m
Form Box + pan
Hersteller SPXS
Bus-Typ Starlink V2MD
Phasenstatus In Orbit
Besitzer/Staat SPXS/US

Große Konstellationen

Loading constellations...